Location: Sevilla
(37.3933°N, 5.9839°W)
Time: 04:21:35
(UTC+02:00)

Tiros 1 despin weight - Pass Details

Date: 25 June 2024
Orbit: 576 x 620 km, 48.2° (Epoch: 22 July)

Event Time Altitude Azimuth Distance (km) Brightness Sun altitude
Rises 15:24:43 0° 284° (WNW) 2,889 ? 71.3°
Reaches altitude 10° 15:27:28 10° 299° (WNW) 1,987 ? 70.9°
Maximum altitude 15:31:04 22° 351° (N) 1,351 ? 70.3°
Drops below altitude 10° 15:34:40 10° 43° (NE) 1,987 ? 69.8°
Sets 15:37:25 0° 59° (ENE) 2,891 ? 69.4°
